Main page
METAR-TAF:

METAR-TAF

Airports :

Winston Field Airport

Snyder, Texas, United States

latitude: 32-41-36N, longitude: 100-57-01W, elevation: 2430 ft

Current weather observation

The report was made 24 minutes ago, at 02:35 UTC
Wind 7 mph from the East
Temperature 43°F
Humidity 56%
Pressure 30.32 in. Hg
Visibility: 10 miles
Clear sky

METAR: KSNK 150235Z AUTO 10006KT 10SM CLR 06/M02 A3032 RMK AO2 T00561022

Time: 20:59 (02:59 UTC)


TAF: missing

Weather observations and forecasts of more than 4000 airports (METAR and TAF reports).

The available stations are represented by yellow and red dots on the map.

Hover mouse over dot to see the name of the station.

Then click to see weather observations and forecasts.

To change the map : click on the green buttons with a black cross to zoom in, on the green button with a dash to zoom out, or on the green arrows for adjacent maps.


METAR-TAF: